CCA129 ZSPD-ZKPY

Flight info

Callsign CCA129
Flight time N/A
Altitude 34100
Route SUR93D SURAK A326 SANKO/K0852S1070 B332 PONIL Y631 SASRI SAS21A
Aircraft B737/M-SDE2E3FGHIRWXY/LB1

Departure

Time N/A
Airport Shanghai Pudong International Airport (ZSPD)

Arrival

Time 2026-04-28 03:14
Airport Pyongyang Sunan International Airport (ZKPY)
Time Latitude Longitude Altitude Speed Heading
2026-04-28 02:02 33.66186 123.48492 34101 ft 412 kts 348°
2026-04-28 02:02 33.69025 123.48481 34101 ft 412 kts 348°
2026-04-28 02:02 33.74773 123.48460 34101 ft 412 kts 348°
2026-04-28 02:03 33.80512 123.48441 34101 ft 410 kts 348°
2026-04-28 02:03 33.86176 123.48418 34101 ft 410 kts 348°
2026-04-28 02:04 33.91880 123.48396 34101 ft 410 kts 348°
2026-04-28 02:04 33.97574 123.48377 34101 ft 410 kts 347°
2026-04-28 02:05 34.03283 123.48358 34101 ft 408 kts 347°
2026-04-28 02:05 34.09018 123.48336 34101 ft 407 kts 347°
2026-04-28 02:06 34.14577 123.47937 34101 ft 401 kts 342°
2026-04-28 02:06 34.20180 123.47405 34101 ft 404 kts 343°
2026-04-28 02:07 34.25827 123.46919 34101 ft 404 kts 343°
2026-04-28 02:07 34.31357 123.46438 34101 ft 403 kts 343°
2026-04-28 02:08 34.36964 123.45954 34101 ft 403 kts 343°
2026-04-28 02:08 34.42551 123.45469 34101 ft 405 kts 343°
2026-04-28 02:09 34.48237 123.44981 34101 ft 405 kts 343°
2026-04-28 02:09 34.53873 123.44495 34101 ft 405 kts 343°
2026-04-28 02:10 34.59550 123.44003 34101 ft 406 kts 342°
2026-04-28 02:10 34.65194 123.43515 34101 ft 406 kts 342°
2026-04-28 02:11 34.70881 123.43022 34101 ft 406 kts 342°
2026-04-28 02:11 34.76568 123.42529 34101 ft 407 kts 342°
2026-04-28 02:12 34.82277 123.42034 34101 ft 406 kts 342°
2026-04-28 02:12 34.87967 123.41549 34101 ft 407 kts 342°
2026-04-28 02:13 34.93610 123.41071 34101 ft 407 kts 342°
2026-04-28 02:13 34.99317 123.40587 34101 ft 406 kts 342°
2026-04-28 02:14 35.05113 123.40332 34101 ft 413 kts 345°
2026-04-28 02:14 35.10733 123.40219 34101 ft 413 kts 344°
2026-04-28 02:15 35.19469 123.39982 34101 ft 412 kts 344°
2026-04-28 02:16 35.25265 123.39826 34101 ft 412 kts 344°
2026-04-28 02:16 35.31042 123.39666 34101 ft 413 kts 343°
2026-04-28 02:17 35.36750 123.39507 34101 ft 414 kts 344°
2026-04-28 02:17 35.42505 123.39352 34101 ft 412 kts 343°
2026-04-28 02:18 35.48210 123.39195 34101 ft 410 kts 343°
2026-04-28 02:18 35.53903 123.39035 34101 ft 410 kts 343°
2026-04-28 02:19 35.59627 123.38876 34101 ft 411 kts 343°
2026-04-28 02:19 35.65332 123.38717 34101 ft 410 kts 343°
2026-04-28 02:20 35.71070 123.38557 34101 ft 410 kts 343°
2026-04-28 02:20 35.76760 123.38398 34101 ft 410 kts 343°
2026-04-28 02:21 35.82479 123.38238 34101 ft 410 kts 343°
2026-04-28 02:21 35.88195 123.38075 34103 ft 412 kts 343°
2026-04-28 02:22 35.93964 123.37915 34106 ft 412 kts 343°
2026-04-28 02:22 35.99684 123.37756 34109 ft 411 kts 343°
2026-04-28 02:23 36.05391 123.37598 34109 ft 411 kts 342°
2026-04-28 02:23 36.11058 123.37436 34109 ft 411 kts 342°
2026-04-28 02:24 36.16818 123.37273 34109 ft 411 kts 342°
2026-04-28 02:24 36.22470 123.37112 34109 ft 411 kts 342°
2026-04-28 02:25 36.28240 123.36948 34109 ft 411 kts 342°
2026-04-28 02:25 36.33956 123.36787 34109 ft 411 kts 342°
2026-04-28 02:26 36.39720 123.36623 34109 ft 411 kts 342°
2026-04-28 02:26 36.45454 123.36462 34109 ft 411 kts 342°
2026-04-28 02:27 36.51217 123.36304 34108 ft 411 kts 342°
2026-04-28 02:27 36.56955 123.36145 34105 ft 411 kts 341°
2026-04-28 02:28 36.62671 123.35987 34102 ft 410 kts 342°
2026-04-28 02:28 36.68404 123.35827 34101 ft 410 kts 341°
2026-04-28 02:29 36.74109 123.35668 34101 ft 411 kts 341°
2026-04-28 02:29 36.79861 123.35505 34101 ft 413 kts 341°
2026-04-28 02:30 36.85575 123.35348 34101 ft 412 kts 341°
2026-04-28 02:30 36.91341 123.35186 34101 ft 412 kts 341°
2026-04-28 02:31 36.97056 123.35026 34101 ft 411 kts 341°
2026-04-28 02:31 37.02819 123.34863 34101 ft 411 kts 341°
2026-04-28 02:32 37.08570 123.34701 34101 ft 411 kts 341°
2026-04-28 02:32 37.14274 123.34540 34101 ft 411 kts 341°
2026-04-28 02:33 37.20050 123.34373 34101 ft 413 kts 341°
2026-04-28 02:33 37.25818 123.34209 34101 ft 414 kts 341°
2026-04-28 02:34 37.31598 123.34049 34101 ft 413 kts 340°
2026-04-28 02:34 37.37324 123.33885 34101 ft 412 kts 340°
2026-04-28 02:35 37.43056 123.33722 34101 ft 412 kts 340°
2026-04-28 02:35 37.48778 123.33559 34101 ft 412 kts 340°
2026-04-28 02:35 37.51604 123.33326 34100 ft 398 kts 334°
2026-04-28 02:36 37.54236 123.32640 34101 ft 378 kts 326°
2026-04-28 02:36 37.56656 123.31451 34101 ft 359 kts 317°
2026-04-28 02:36 37.58787 123.29945 34101 ft 347 kts 311°
2026-04-28 02:36 37.60670 123.28146 34101 ft 332 kts 303°
2026-04-28 02:37 37.62268 123.26101 34101 ft 326 kts 300°
2026-04-28 02:37 37.65484 123.22015 34101 ft 329 kts 302°
2026-04-28 02:38 37.68712 123.17929 34101 ft 327 kts 301°
2026-04-28 02:38 37.71904 123.13854 34101 ft 327 kts 301°
2026-04-28 02:39 37.75121 123.09734 34103 ft 327 kts 301°
2026-04-28 02:39 37.78330 123.05617 34105 ft 327 kts 301°
2026-04-28 02:40 37.81515 123.01523 34107 ft 327 kts 301°
2026-04-28 02:40 37.84707 122.97413 34111 ft 327 kts 301°
2026-04-28 02:41 37.87878 122.93326 34116 ft 327 kts 301°
2026-04-28 02:41 37.91061 122.89217 34124 ft 327 kts 301°
2026-04-28 02:42 37.94251 122.85093 34128 ft 327 kts 301°
2026-04-28 02:42 37.97444 122.80961 34128 ft 326 kts 301°
2026-04-28 02:43 38.00612 122.76856 34128 ft 326 kts 301°
2026-04-28 02:43 38.03804 122.72711 34128 ft 326 kts 301°
2026-04-28 02:44 38.06985 122.68578 34128 ft 326 kts 301°
2026-04-28 02:44 38.10176 122.64443 34128 ft 327 kts 302°
2026-04-28 02:44 38.11939 122.62540 34127 ft 342 kts 310°
2026-04-28 02:45 38.14104 122.61074 34129 ft 364 kts 320°
2026-04-28 02:45 38.16526 122.59924 34128 ft 376 kts 324°
2026-04-28 02:45 38.19143 122.59180 34125 ft 402 kts 337°
2026-04-28 02:45 38.22101 122.59380 34131 ft 437 kts 352°
2026-04-28 02:46 38.25100 122.60207 34128 ft 451 kts 358°
2026-04-28 02:46 38.28115 122.61603 34130 ft 481 kts 11°
2026-04-28 02:46 38.30936 122.64170 34138 ft 519 kts 32°
2026-04-28 02:46 38.33187 122.67960 34143 ft 549 kts 54°
2026-04-28 02:47 38.34784 122.72492 34149 ft 558 kts 62°
2026-04-28 02:47 38.37386 122.81907 34151 ft 564 kts 73°
2026-04-28 02:48 38.39443 122.91516 34147 ft 560 kts 66°
2026-04-28 02:48 38.42149 123.00745 34116 ft 558 kts 63°
2026-04-28 02:49 38.44915 123.10053 34108 ft 557 kts 63°
2026-04-28 02:49 38.47700 123.19387 34101 ft 557 kts 63°
2026-04-28 02:50 38.50464 123.28595 34101 ft 557 kts 63°
2026-04-28 02:50 38.53263 123.37934 34101 ft 557 kts 63°
2026-04-28 02:51 38.56030 123.47182 33827 ft 558 kts 63°
2026-04-28 02:51 38.57440 123.51900 32835 ft 566 kts 63°
2026-04-28 02:51 38.58871 123.56679 31828 ft 574 kts 63°
2026-04-28 02:51 38.60250 123.61325 31126 ft 575 kts 64°
2026-04-28 02:52 38.61646 123.66098 30371 ft 576 kts 65°
2026-04-28 02:52 38.63059 123.70948 29584 ft 576 kts 65°
2026-04-28 02:52 38.64466 123.75777 28804 ft 575 kts 65°
2026-04-28 02:52 38.65856 123.80512 28032 ft 574 kts 65°
2026-04-28 02:53 38.67271 123.85297 27245 ft 571 kts 65°
2026-04-28 02:53 38.68667 123.90009 26455 ft 569 kts 65°
2026-04-28 02:53 38.70143 123.94705 25644 ft 545 kts 60°
2026-04-28 02:53 38.71851 123.99000 24887 ft 518 kts 54°
2026-04-28 02:54 38.73552 124.02668 24205 ft 495 kts 51°
2026-04-28 02:54 38.75394 124.06291 23511 ft 474 kts 49°
2026-04-28 02:54 38.77130 124.09633 22870 ft 456 kts 49°
2026-04-28 02:54 38.78881 124.13000 22230 ft 439 kts 49°
2026-04-28 02:55 38.80467 124.16024 21674 ft 436 kts 49°
2026-04-28 02:55 38.82146 124.19186 21067 ft 435 kts 49°
2026-04-28 02:55 38.83137 124.21091 20697 ft 437 kts 52°
2026-04-28 02:55 38.83417 124.21696 20582 ft 439 kts 54°
2026-04-28 02:56 38.84887 124.26224 19814 ft 444 kts 67°
2026-04-28 02:56 38.85539 124.29028 19341 ft 446 kts 72°
2026-04-28 02:56 38.86280 124.33379 18629 ft 445 kts 75°
2026-04-28 02:56 38.86904 124.37289 17986 ft 435 kts 75°
2026-04-28 02:57 38.87520 124.41017 17382 ft 421 kts 74°
2026-04-28 02:57 38.88119 124.44664 16788 ft 409 kts 75°
2026-04-28 02:57 38.88685 124.48185 16213 ft 404 kts 75°
2026-04-28 02:57 38.89224 124.51598 15651 ft 391 kts 75°
2026-04-28 02:58 38.89767 124.55064 15084 ft 379 kts 75°
2026-04-28 02:58 38.90279 124.58324 14548 ft 369 kts 75°
2026-04-28 02:58 38.90768 124.61443 14034 ft 358 kts 75°
2026-04-28 02:58 38.91256 124.64572 13580 ft 346 kts 75°
2026-04-28 02:59 38.91716 124.67542 13368 ft 332 kts 75°
2026-04-28 02:59 38.92147 124.70294 13264 ft 344 kts 75°
2026-04-28 02:59 38.92599 124.73199 13123 ft 342 kts 75°
2026-04-28 02:59 38.93044 124.76109 12990 ft 333 kts 75°
2026-04-28 03:00 38.93509 124.79112 12856 ft 342 kts 75°
2026-04-28 03:00 38.93973 124.82129 12524 ft 340 kts 75°
2026-04-28 03:00 38.94423 124.85071 12000 ft 342 kts 75°
2026-04-28 03:00 38.94896 124.88158 11471 ft 342 kts 75°
2026-04-28 03:01 38.95359 124.91173 10970 ft 341 kts 75°
2026-04-28 03:01 38.95816 124.94154 10491 ft 338 kts 76°
2026-04-28 03:01 38.96227 124.96884 10244 ft 319 kts 76°
2026-04-28 03:01 38.96651 124.99693 10074 ft 308 kts 76°
2026-04-28 03:02 38.97060 125.02374 9702 ft 306 kts 76°
2026-04-28 03:02 38.97469 125.05061 9304 ft 304 kts 76°
2026-04-28 03:02 38.97848 125.07574 8940 ft 301 kts 76°
2026-04-28 03:02 38.98217 125.10021 8586 ft 299 kts 76°
2026-04-28 03:03 38.98642 125.12850 8177 ft 296 kts 76°
2026-04-28 03:03 38.99026 125.15397 7810 ft 294 kts 76°
2026-04-28 03:03 38.99418 125.18004 7431 ft 291 kts 76°
2026-04-28 03:03 38.99799 125.20542 7063 ft 289 kts 76°
2026-04-28 03:04 39.00183 125.23106 6691 ft 287 kts 75°
2026-04-28 03:04 39.00560 125.25621 6327 ft 284 kts 75°
2026-04-28 03:04 39.00926 125.28075 5971 ft 282 kts 75°
2026-04-28 03:04 39.01296 125.30561 5685 ft 276 kts 75°
2026-04-28 03:05 39.01652 125.32957 5594 ft 264 kts 75°
2026-04-28 03:05 39.01952 125.34977 5513 ft 253 kts 75°
2026-04-28 03:05 39.02277 125.37162 5425 ft 242 kts 75°
2026-04-28 03:05 39.02586 125.39250 5319 ft 232 kts 75°
2026-04-28 03:06 39.02890 125.41288 5046 ft 231 kts 75°
2026-04-28 03:06 39.03192 125.43330 4788 ft 228 kts 75°
2026-04-28 03:06 39.03488 125.45329 4546 ft 225 kts 75°
2026-04-28 03:06 39.03778 125.47298 4310 ft 222 kts 75°
2026-04-28 03:07 39.04066 125.49247 4078 ft 219 kts 75°
2026-04-28 03:07 39.04349 125.51167 3847 ft 216 kts 75°
2026-04-28 03:07 39.04635 125.53077 3618 ft 213 kts 75°
2026-04-28 03:07 39.04902 125.54922 3397 ft 209 kts 75°
2026-04-28 03:08 39.05174 125.56785 3184 ft 206 kts 75°
2026-04-28 03:08 39.05438 125.58591 3122 ft 204 kts 75°
2026-04-28 03:08 39.05701 125.60376 3056 ft 206 kts 75°
2026-04-28 03:08 39.05993 125.62168 2993 ft 204 kts 70°
2026-04-28 03:09 39.06394 125.63821 2994 ft 203 kts 68°
2026-04-28 03:09 39.06823 125.65562 2990 ft 204 kts 69°
2026-04-28 03:09 39.07254 125.67350 2870 ft 208 kts 69°
2026-04-28 03:09 39.07692 125.69148 2510 ft 212 kts 66°
2026-04-28 03:10 39.08502 125.70628 2331 ft 194 kts 30°
2026-04-28 03:10 39.09728 125.71048 2105 ft 181 kts 355°
2026-04-28 03:10 39.10886 125.70737 1816 ft 166 kts 347°
2026-04-28 03:10 39.11954 125.70390 1613 ft 147 kts 345°
2026-04-28 03:11 39.12886 125.70040 1386 ft 133 kts 343°
2026-04-28 03:11 39.13747 125.69704 1236 ft 128 kts 342°
2026-04-28 03:11 39.14605 125.69368 1057 ft 128 kts 342°
2026-04-28 03:11 39.15451 125.69037 910 ft 125 kts 342°
2026-04-28 03:12 39.16295 125.68706 716 ft 127 kts 341°
2026-04-28 03:12 39.16790 125.68510 616 ft 124 kts 344°
2026-04-28 03:13 39.17318 125.68294 493 ft 118 kts 342°
2026-04-28 03:13 39.18167 125.67985 351 ft 127 kts 342°
2026-04-28 03:13 39.18985 125.67632 193 ft 128 kts 342°
2026-04-28 03:14 39.19828 125.67312 127 ft 116 kts 342°
2026-04-28 03:14 39.20373 125.67098 126 ft 54 kts 343°
2026-04-28 03:14 39.20614 125.67003 126 ft 26 kts 343°
2026-04-28 03:14 39.20731 125.66984 126 ft 12 kts 33°
2026-04-28 03:15 39.20763 125.67082 126 ft 10 kts 73°
2026-04-28 03:15 39.20779 125.67168 126 ft 9 kts 93°
2026-04-28 03:15 39.20734 125.67213 126 ft 8 kts 161°
2026-04-28 03:15 39.20686 125.67233 126 ft 6 kts 163°
2026-04-28 03:16 39.20644 125.67250 126 ft 5 kts 163°
2026-04-28 03:16 39.20608 125.67265 126 ft 6 kts 163°
2026-04-28 03:16 39.20554 125.67287 126 ft 9 kts 163°
2026-04-28 03:16 39.20479 125.67316 126 ft 13 kts 163°
2026-04-28 03:17 39.20391 125.67351 126 ft 13 kts 163°
2026-04-28 03:17 39.20211 125.67418 126 ft 13 kts 165°
2026-04-28 03:17 39.20126 125.67449 126 ft 12 kts 164°
2026-04-28 03:18 39.20086 125.67499 126 ft 8 kts 71°
2026-04-28 03:18 39.20098 125.67551 126 ft 0 kts 73°